Погода в Карабулаке

Россия / Челябинская область     52°53′34″N   59°09′17″E
темп.,
°C
ветер,
м/с
пор.,
м/с
влажн.,
%
обл.,
%
осадки,
мм/ч
давл.,
гПа
погр.,
м
16 мая, вс
вс1623:00+19ссв1255100 0.1 102342
02:00+17з226281 0.0 102330
05:00+17сз12590 0.0 102311
08:00+22з11440 0.0 1023171
11:00+27ю21305 0.0 1023982
14:00+30ю34215 0.0 10223419
17:00+30ююз34196 0.0 10213617
20:00+26зсз473574 0.0 1021187
17 мая, пн
пн1723:00+21ссз25461 0.0 1022131
02:00+18з22500 0.0 102211
05:00+17зюз22550 0.0 102211
08:00+22зсз23401 0.0 1022196
11:00+28зсз36224 0.0 10212958
14:00+30з652190 0.0 10203823
17:00+27сз662887 0.0 1020538
20:00+24ссв344026 0.0 101978
18 мая, вт
вт1823:00+21зсз33444 0.1 102043
02:00+17ссз22635 0.0 101919
05:00+17з2260100 0.0 101911
08:00+22з33455 0.0 1018215
11:00+27ссз34280 0.0 10171350
14:00+30ссз442195 0.0 10163716
17:00+29ссз6622100 0.0 10153289
20:00+24ссз6113998 0.0 1016371
19 мая, ср
ср1923:00+19ссв410495 0.0 1017238
02:00+16св712700 0.0 1019576
05:00+11св611740 0.0 1021472
08:00+12св797233 0.0 1023686
11:00+16св78511 0.0 10231144
14:00+20всв7835100 0.0 10221397
17:00+21всв6731100 0.0 10221549
20:00+18всв47391 0.0 1022205
20 мая, чт
чт2023:00+13всв48480 0.0 1023121
02:00+12вюв49491 0.0 1024173
05:00+10вюв33500 0.0 102530
08:00+15юв22400 0.0 1025300
11:00+20юв44310 0.0 10241297
14:00+23юв43260 0.0 10231802
17:00+23ююв33240 0.0 10221990
20:00+21ю223297 0.0 102216